Regional Weather Roundup
Issued by NWS

Home | Current Version | Previous Version | Graphics & Text | Print | Product List | Glossary On
Versions: 1 2 3 4 5 6 7 8 9 10 11 12 13 14 15 16 17 18 19 20 21 22 23 24 25 26 27 28 29 30 31 32 33 34 35 36 37 38 39 40 41 42 43 44 45 46 47 48 49 50
000
ASUS43 KMKX 201700
RWRWI

WISCONSIN REGIONAL WEATHER ROUNDUP
NATIONAL WEATHER SERVICE MILWAUKEE/SULLIVAN WI
1200 PM CDT FRI OCT 20 2017

NOTE: "FAIR" INDICATES FEW OR NO CLOUDS BELOW 12,000 FEET WITH NO
SIGNIFICANT WEATHER AND/OR OBSTRUCTIONS TO VISIBILITY.

WIZ001-002-006>008-014>016-023>028-201800-
NORTHWEST WISCONSIN

CITY           SKY/WX    TMP DP  RH WIND       PRES   REMARKS
SUPERIOR ARPT  SUNNY     69  51  52 S12       29.81F
ASHLAND        SUNNY     72  49  44 S12G21    29.85F
HAYWARD        SUNNY     69  49  48 S17       29.89F
SIREN          SUNNY     69  49  48 S12       29.86F
CUMBERLAND     SUNNY     64  50  59 S10       29.90F
RICE LAKE      SUNNY     67  50  53 S10       29.93F
CHETEK         SUNNY     67  53  58 S8        29.92F
LADYSMITH      SUNNY     67  51  56 S13       29.96F
EAU CLAIRE     NOT AVBL
MENOMONIE      SUNNY     69  52  54 S9G17     29.93F
NEW RICHMOND   SUNNY     69  49  48 S13       29.89F
OSCEOLA        SUNNY     69  51  52 S16       29.91S
$$

WIZ003>005-009-010-017-018-201800-
NORTH CENTRAL WISCONSIN

CITY           SKY/WX    TMP DP  RH WIND       PRES   REMARKS
MANITOWISH WTR SUNNY     66  49  54 S10       29.94F
ARBOR VITAE    SUNNY     67  50  54 S9        29.96F
WOODRUFF       SUNNY     67  50  54 S9        29.96F
RHINELANDER    SUNNY     68  49  50 SW12      29.98F
EAGLE RIVER    SUNNY     69  46  43 SW9       29.96F
LAND O LAKES   SUNNY     69  47  46 S9        29.97F
PHILLIPS       SUNNY     67  50  54 S9        29.94F
TOMAHAWK       SUNNY     67  49  51 S3        29.98F
MEDFORD        SUNNY     66  50  57 S9        29.98F
MERRILL        SUNNY     69  51  53 SW9       30.00F
$$

WIZ029-030-035-036-043>047-201800-
CENTRAL WISCONSIN

CITY           SKY/WX    TMP DP  RH WIND       PRES   REMARKS
WAUSAU         SUNNY     68  50  52 S9        29.99F
MOSINEE        NOT AVBL
MARSHFIELD     SUNNY     70  50  49 SW12      29.99F
STEVENS POINT  SUNNY     66  51  56 S7        30.03S
WAUPACA        SUNNY     70  51  51 S9        30.04F
WAUTOMA        SUNNY     70  52  52 S7        30.05F
WISC RAPIDS    SUNNY     68  52  56 SW14      30.03F
CAMP DOUGLAS   NOT AVBL
$$

WIZ011>013-019>022-031-037>040-048>050-201800-
NORTHEAST WISCONSIN

CITY           SKY/WX    TMP DP  RH WIND       PRES   REMARKS
ANTIGO         SUNNY     66  51  57 SW10      30.02F
SHAWANO        SUNNY     69  51  52 SW7       30.03S
OCONTO         SUNNY     69  51  51 S6        30.02F
STURGEON BAY   SUNNY     73  54  51 S9          N/A
GREEN BAY      SUNNY     68  53  58 SW14      30.05S
MANITOWOC      SUNNY     69  54  58 S12       30.06F
APPLETON       MOSUNNY   70  48  46 SW13G18   30.04F
CLINTONVILLE   NOT AVBL
OSHKOSH        SUNNY     69  53  56 SW13      30.05F
$$

WIZ032>034-041-042-053>061-201800-
SOUTHWEST WISCONSIN

CITY           SKY/WX    TMP DP  RH WIND       PRES   REMARKS
LA CROSSE      SUNNY     70  53  54 S14       29.99F
SPARTA         SUNNY     71  53  52 S10       30.01F
VIROQUA        SUNNY     68  53  58 SW13      30.04F
BOSCOBEL       SUNNY     72  52  49 S9        30.05F
PRAIRIE DU CHI SUNNY     69  51  52 S6        30.04F
PLATTEVILLE    SUNNY     69  55  60 SW13      30.09F
$$

WIZ056-057-062-063-064-067-068-201800-
SOUTH CENTRAL WISCONSIN

CITY           SKY/WX    TMP DP  RH WIND       PRES   REMARKS
REEDSBURG      SUNNY     69  53  55 SW13      30.05F
BARABOO/DELLS  SUNNY     68  50  51 SW9       30.06F
LONE ROCK      NOT AVBL
MINERAL POINT  SUNNY     70  54  56 S10       30.08F
MADISON        MOSUNNY   69  53  56 S9        30.07F
MIDDLETON      SUNNY     71  53  52 S10       30.08F
WATERTOWN      SUNNY     69  53  57 S12       30.09F
MONROE         SUNNY     70  50  49 SW15      30.10F
JANESVILLE     SUNNY     73  50  43 SW14      30.10F
$$

WIZ051-052-058>065-066-070>072-201800-
SOUTHEAST WISCONSIN

CITY           SKY/WX    TMP DP  RH WIND       PRES   REMARKS
MILWAUKEE      MOSUNNY   73  52  47 SW14      30.11F
WAUKESHA       SUNNY     70  50  49 SW10      30.12F
MILWAUKEE/TIMM SUNNY     73  48  40 SW10      30.11F
RACINE         SUNNY     74  52  46 SW10      30.13F
BURLINGTON     SUNNY     72  54  52 SW12      30.12F
KENOSHA        SUNNY     73  51  46 SW12      30.13F
FOND DU LAC    SUNNY     71  50  47 SW10      30.07F
SHEBOYGAN      SUNNY     73  54  51 SW16      30.07F
WEST BEND      SUNNY     72  46  40 S13G18    30.09F
JUNEAU         SUNNY     68  52  56 S10G16    30.10F
$$

LSZ147-162-201800-
LAKE SUPERIOR

STATION/POSITION TIME  TEMP    WIND        PRES    WAVE
                       AIR SEA DIR/SP/G            HT/PER
                 (UTC) (F)     (DEG/KT/KT) (MB)    (FT/S)
W MID LAKE BUOY  1550   55 52              1011.2F   1/ 3
DEVILS ISLAND    1600   63     190/  5/  7 1010.8F
PORT WING        1640          180/  9/ 15 1010.2F
SAXON HARBOR     1630   72     190/  8/ 14 1010.5F
$$

LMZ867-665-643>646-201800-
LAKE MICHIGAN

STATION/POSITION TIME  TEMP    WIND        PRES    WAVE
                       AIR SEA DIR/SP/G            HT/PER
                 (UTC) (F)     (DEG/KT/KT) (MB)    (FT/S)
S GREEN BAY BUOY 1500   59 58  210/ 14/ 16 1017.4
N MID LAKE BUOY  1550   60 58  190/ 16/ 19 1018.1F   4/ 6
NORTHPORT PIER   1630   60     150/  7/  9 1016.9S
KEWAUNEE LAKESHO 1454   54     180/  5/  7 1017.6F
SHEBOYGAN LAKESH 1600   56     170/ 16/ 18 1018.7F
PORT WASHINGTON  1640   60     170/  5/  7 1020.0F
MILWAUKEE LAKESH 1450   64     220/  7/  7   N/A
S MID LAKE BUOY  1550   61 61  190/ 16/ 17 1021.2F   2/ 4
KENOSHA   LAKESH 1600   70     220/  7/ 10 1020.3
$$

TC  - TEMPERATURE IN CELSIUS
VSB - VISIBILITY IN STATUTE MILES
WCI - WIND CHILL INDEX
HX  - HEAT INDEX





USA.gov is the U.S. government's official web portal to all federal, state and local government web resources and services.